Погода в Каймане

Индонезия     3°34′08″S   134°04′20″E
темп.,
°C
ветер,
м/с
пор.,
м/с
влажн.,
%
обл.,
%
осадки,
мм/ч
давл.,
гПа
погр.,
м
2 марта, вт
вт200:00+22зюз019784 5.4 101025
03:00+21з019692 9.1 100925
06:00+21ссз1195100 0.0 101026
09:00+24юз1183100 0.0 1011309
12:00+28ююз2367100 0.3 10101036
15:00+27юз2373100 1.9 1007806
18:00+23зюз1297100 2.4 100973
21:00+21зсз1198100 4.3 101130
3 марта, ср
ср300:00+21ссз1298100 0.5 101154
03:00+21зюз0198100 3.0 101032
06:00+21сз1199100 0.9 101159
09:00+22ссз1395100 1.0 1012281
12:00+30зюз135799 0.0 10101056
15:00+25юз238894 1.9 1008449
18:00+23ююз1196100 2.2 100930
21:00+21вюв0198100 2.6 101126
4 марта, чт
чт400:00+20св1198100 0.0 101225
03:00+20с1197100 0.0 101027
06:00+19ссв1196100 0.0 101124
09:00+24св0183100 0.0 1012239
12:00+31юз244682 0.0 10101574
15:00+25юз128565 1.1 1007119
18:00+23юз119535 2.6 100828
21:00+21ссз119558 4.4 101125
5 марта, пт
пт500:00+20ссз119497 0.2 101026
03:00+20с119396 0.2 100928
06:00+19с129270 0.0 101028
09:00+27с016258 0.0 1012588
12:00+31зюз235051 0.1 10101610
15:00+27з138673 3.7 1007812
18:00+23з0195100 4.1 100828
21:00+21с1297100 5.1 101031
6 марта, сб
сб600:00+20с1296100 0.7 101026
03:00+20с129690 0.7 100930
06:00+20ссв129599 0.0 101039
09:00+27с126684 0.0 1011612
12:00+27з237842 1.4 10091164
15:00+26зсз138962 7.5 1007727
18:00+22сз1296100 3.8 100942
21:00+21с1296100 4.1 101149